Location: Bois de la Silve
(44.4667°N, 6.7833°E)
Time: 21:05:50
(UTC+00:00)

Cosmos 1666 - Pass Details

Date: 14 July 2020
Orbit: 497 x 521 km, 82.5° (Epoch: 14 August)

Event Time Altitude Azimuth Distance (km) Brightness Sun altitude
Exits shadow 02:48:04 14° 250° (WSW) 1,491 4.5 -11.1°
Maximum altitude 02:50:02 20° 288° (WNW) 1,224 4.3 -10.8°
Drops below altitude 10° 02:52:52 10° 337° (NNW) 1,724 5.6 -10.5°
Sets 02:55:27 0° 355° (N) 2,610 6.9 -10.1°
